Aeroporto :
LOGIN :

Iscrizione | Disclaimer

   EN    FR    IT 

 










Sommario :    VFR   VFR Marginale   IFR   IFR Intensivo   IFR Molto Intensivo
Visibilità : 
Base nubi : 
>= 8 km
>= 3000ft
5 / 8 km
1000 / 3000 ft
1500m / 5 km
500 / 1000 ft
800 / 1500m
200 / 500 ft
< 800m
< 200 ft
Simboli :   Temporali  Nebbia  Neve Forte  Precipitazioni Forti  Vento > 20 kt
SIGMETs :   Varie  Temporali  Ghiacco  Turbolenza  Onda orograficha  Ceneri Vulcaniche






- Altitudine del aeroporto : 15 ft
- Codice IATA : BHD


EGAC - George Best Belfast City

ULTIMO METAR :
  • 242220Z AUTO 00000KT 9999 NCD 10/08 Q1031

METARs OBSOLETI :
  • 242150Z AUTO 04003KT 9999 NCD 10/08 Q1031
  • 242120Z AUTO 03006KT 9999 NCD 11/09 Q1031
  • 242050Z AUTO 03006KT 9999 NCD 11/09 Q1031
  • 242020Z AUTO 05007KT 9999 NCD 12/09 Q1031
  • 241950Z AUTO 03008KT 9999 NCD 12/09 Q1030

TAF TAF EGAC
Valido dal 24 a 21 ore il 25 a 06 ore UTC


241955Z 2421/2506 VRB03KT 9999 FEW040
PROB30 2500/2506 8000
ATIS : +44 02890 935 124



MetMap, La meteo Aeronautica in un colpo d'occhio ! - Copyright ORBIFLY Dicembre 2007 - Disclaimer

ORBIFLY MET'MAP TEAM :

Programmazione e sviluppo : Alexandra Zaïnal
Concezione : Baudouin d'Aumeries
Aiuto per la programmazione : Marc-Olivier Méhu
Supporto tecnico e logistico : Manuel Goepfert
Aiuto per la traduzione : Arnaldo La Scala

Contatto : metmap@orbifly.com




FONTI E CREDITI :

   NOAA